ASIASAT 3S

Last updated on Aug. 11, 2020, 5:36 a.m. UTC

1 25657U 99013A   20223.52566904 -.00000228  00000-0  00000+0 0  9995
2 25657   4.9024  72.1243 0003762  40.4896 183.5680  1.00270786 78393
UTC
Height (km)
Latitude
Longitude
Inclination
Orbital Period
UTC large
Height (km)
Speed (km/s)
/
Latitude / Longitude
Inclination (degrees)
Orbital Period (minutes)
Azimuth
Elevation
Range (km)
Doppler Factor
iOS Compass Heading
iOS Angle

Next 30 passes for location: Hong Kong

Rise time Rise Azimuth (degrees) Set time Set Azimuth (degrees) Duration Max altitude (degrees)

No matching passes for this satellites